DELTA 1 DEB, 12528

Orbit data source: Space-Track

DELTA 1 DEB, 12528 is space debris in SSO originally from a launch on Thu, 29 Jul 1976 UTC launched from the Air Force Western Test Range (AFWTR). Debris objects in space refer to the collection of defunct objects orbiting the Earth. Examples of debris include non-operational satellites, rocket bodies, and fragments generated from explosions, collisions, or faulty payload assembly.

Loading next visibility...
Identifier
12528, 1976-077DH
Orbit
SSO
Country
Flag of USUS
Related business
Manufacturer
Unknown
Mission
Spacecraft
Bus & Motor
Unknown
Mass
Unknown
Launch date (UTC)
1976-07-29 (50 years ago)
Launch vehicle
Unknown
Launch site
Air Force Western Test Range (AFWTR)
Object type
Payload
Rocket body
Debris
Shape & HBR
Unknown shape, 0.4 m
Radar Cross Section
Medium (>0.1 m² and <1 m²)

Expand to show TLE details & history
Last TLE update: 14 hours ago

TLE from 14 hours ago
0 DELTA 1 DEB
1 12528U 76077DH  26105.90555325 -.00000049  00000-0 -30430-4 0  9992
2 12528 102.5624  91.0846 0078257  43.7837 345.2382 12.27223974163544
Epoch: 2026-04-15T21:43Z
TLE epoch observation values (Epoch: 2026-04-15T21:43:59.800Z)
Latitude
28.08228°
Longitude
-85.77009°
Altitude
1,504.28 km
Speed
7.142 km/s
True Right ascension
05h 37m 09s
True Declination
27° 57' 12"
Sunlit
Object was in daylight at epoch
Visualization orbit readout
Latitude
Unknown
Longitude
Unknown
Altitude
Unknown
Speed
Unknown
Apparent Right ascension
Unknown
Apparent Declination
Unknown
Sunlit
N/A
Visualization observer readout
Local Sidereal Time
18:06:43
Azimuth
Unknown
Elevation
Unknown
Doppler factor
Unknown
Orbital elements
Apogee altitude
1,620.969 km
Perigee altitude
1,496.744 km
Semi-major axis
7,936.994 km
Eccentricity
0.00783
Inclination
102.5624°
RAAN
91.0846°
Arg. of periapsis
43.7837°
True anomaly
345.00752°
Mean anomaly
345.2382°
Eccentric anomaly
345.12308°
Mean motion
3.06944 °/min
Orbital period
117.29 mins
BSTAR
-0.00003043
Loading maneuver chart data...
Computing Atmospheric mass density...
Loading historical data...
Loading historical data...
Loading historical data...
Loading historical data...
Loading historical data...
Loading historical data...
Loading historical data...

Documentation

Showing up to 5 results
|